AVA9545 SKBO-SKCL

Flight info

Callsign AVA9545
Flight time N/A
Altitude 22000
Route KAMIS6A KAMIS W16 GIR R564 OREGA OREGA5A
Aircraft A320/M-SDE3FGHIRWY/LB1

Departure

Time N/A
Airport El Dorado International Airport (SKBO)

Arrival

Time 2026-05-03 20:30
Airport Alfonso Bonilla Aragon International Airport (SKCL)
Time Latitude Longitude Altitude Speed Heading
2026-05-03 20:15 3.79926 -75.64362 21984 ft 373 kts 243°
2026-05-03 20:15 3.78825 -75.66707 21980 ft 372 kts 243°
2026-05-03 20:15 3.77718 -75.69050 21975 ft 372 kts 243°
2026-05-03 20:15 3.76612 -75.71388 21978 ft 372 kts 243°
2026-05-03 20:16 3.75503 -75.73730 21975 ft 372 kts 243°
2026-05-03 20:16 3.74395 -75.76069 21952 ft 372 kts 242°
2026-05-03 20:16 3.73284 -75.78409 21629 ft 370 kts 243°
2026-05-03 20:16 3.72182 -75.80734 21375 ft 369 kts 243°
2026-05-03 20:17 3.71091 -75.83047 21121 ft 367 kts 243°
2026-05-03 20:17 3.70010 -75.85342 20807 ft 362 kts 243°
2026-05-03 20:17 3.68938 -75.87618 20341 ft 361 kts 243°
2026-05-03 20:17 3.67866 -75.89892 19850 ft 361 kts 243°
2026-05-03 20:18 3.66792 -75.92166 19361 ft 362 kts 243°
2026-05-03 20:18 3.65715 -75.94435 18990 ft 359 kts 243°
2026-05-03 20:18 3.64646 -75.96691 18615 ft 356 kts 243°
2026-05-03 20:18 3.63591 -75.98921 18213 ft 354 kts 243°
2026-05-03 20:19 3.62543 -76.01138 17829 ft 350 kts 243°
2026-05-03 20:19 3.61533 -76.03286 17639 ft 331 kts 243°
2026-05-03 20:19 3.60566 -76.05338 17157 ft 322 kts 243°
2026-05-03 20:19 3.59619 -76.07346 16635 ft 316 kts 243°
2026-05-03 20:20 3.58688 -76.09319 16142 ft 311 kts 243°
2026-05-03 20:20 3.57768 -76.11262 15684 ft 308 kts 243°
2026-05-03 20:20 3.56852 -76.13194 15179 ft 309 kts 243°
2026-05-03 20:20 3.55929 -76.15142 14850 ft 308 kts 244°
2026-05-03 20:21 3.55019 -76.17069 14521 ft 306 kts 244°
2026-05-03 20:21 3.54114 -76.18985 14206 ft 304 kts 244°
2026-05-03 20:21 3.53197 -76.20928 13613 ft 314 kts 244°
2026-05-03 20:21 3.52258 -76.22915 13212 ft 316 kts 244°
2026-05-03 20:22 3.51327 -76.24885 12666 ft 311 kts 244°
2026-05-03 20:22 3.50320 -76.26786 12022 ft 307 kts 233°
2026-05-03 20:22 3.48835 -76.28278 11391 ft 301 kts 213°
2026-05-03 20:22 3.46969 -76.29169 10718 ft 296 kts 194°
2026-05-03 20:23 3.44969 -76.29616 10020 ft 293 kts 192°
2026-05-03 20:23 3.42989 -76.30046 9342 ft 289 kts 192°
2026-05-03 20:23 3.41041 -76.30476 8659 ft 285 kts 193°
2026-05-03 20:23 3.39116 -76.30904 7980 ft 282 kts 193°
2026-05-03 20:24 3.37829 -76.31190 7535 ft 279 kts 193°
2026-05-03 20:24 3.35961 -76.31604 7075 ft 267 kts 193°
2026-05-03 20:24 3.34306 -76.32235 6965 ft 248 kts 217°
2026-05-03 20:24 3.33306 -76.33536 6959 ft 231 kts 250°
2026-05-03 20:25 3.33173 -76.35085 6837 ft 223 kts 282°
2026-05-03 20:25 3.33810 -76.36463 6713 ft 215 kts 298°
2026-05-03 20:25 3.34549 -76.37736 6585 ft 208 kts 298°
2026-05-03 20:25 3.35266 -76.38971 6474 ft 201 kts 300°
2026-05-03 20:26 3.36168 -76.40000 6329 ft 194 kts 320°
2026-05-03 20:26 3.37319 -76.40628 6178 ft 185 kts 340°
2026-05-03 20:26 3.38572 -76.40839 5992 ft 181 kts 359°
2026-05-03 20:26 3.39808 -76.40687 5774 ft 178 kts 10°
2026-05-03 20:27 3.41023 -76.40476 5523 ft 175 kts 11°
2026-05-03 20:27 3.42169 -76.40278 5319 ft 161 kts 11°
2026-05-03 20:27 3.43229 -76.40093 5107 ft 153 kts 11°
2026-05-03 20:27 3.44275 -76.39913 4895 ft 149 kts 12°
2026-05-03 20:28 3.45285 -76.39737 4704 ft 146 kts 11°
2026-05-03 20:28 3.46283 -76.39564 4512 ft 145 kts 11°
2026-05-03 20:28 3.47279 -76.39392 4320 ft 144 kts 10°
2026-05-03 20:28 3.48258 -76.39220 4131 ft 142 kts 10°
2026-05-03 20:29 3.49229 -76.39053 3938 ft 141 kts
2026-05-03 20:29 3.50182 -76.38884 3744 ft 141 kts 10°
2026-05-03 20:29 3.51148 -76.38716 3559 ft 141 kts 10°
2026-05-03 20:29 3.52113 -76.38550 3394 ft 141 kts
2026-05-03 20:30 3.53073 -76.38380 3200 ft 139 kts 10°
2026-05-03 20:30 3.53967 -76.38228 3168 ft 108 kts
2026-05-03 20:30 3.54533 -76.38129 3165 ft 60 kts 10°
2026-05-03 20:30 3.54835 -76.38077 3161 ft 40 kts
2026-05-03 20:31 3.55017 -76.38046 3164 ft 17 kts
2026-05-03 20:31 3.55093 -76.38062 3166 ft 10 kts 305°
2026-05-03 20:31 3.55107 -76.38121 3166 ft 8 kts 279°
2026-05-03 20:31 3.55111 -76.38169 3167 ft 6 kts 260°
2026-05-03 20:32 3.55084 -76.38198 3167 ft 8 kts 204°
2026-05-03 20:32 3.55021 -76.38210 3166 ft 9 kts 189°
2026-05-03 20:32 3.54960 -76.38220 3167 ft 9 kts 189°
2026-05-03 20:32 3.54882 -76.38234 3165 ft 16 kts 190°
2026-05-03 20:33 3.54754 -76.38254 3167 ft 20 kts 188°
2026-05-03 20:33 3.54607 -76.38280 3164 ft 23 kts 190°
2026-05-03 20:33 3.54443 -76.38310 3165 ft 25 kts 190°
2026-05-03 20:33 3.54267 -76.38339 3166 ft 26 kts 189°
2026-05-03 20:34 3.54097 -76.38374 3168 ft 22 kts 203°
2026-05-03 20:34 3.53972 -76.38473 3165 ft 23 kts 219°
2026-05-03 20:34 3.53860 -76.38564 3163 ft 16 kts 221°
2026-05-03 20:34 3.53825 -76.38667 3163 ft 14 kts 266°
2026-05-03 20:35 3.53823 -76.38701 3163 ft 0 kts 265°